Location: Seattle
(47.6064°N, 122.3308°W)
Time: 02:21:22
(UTC-08:00)

SR - Pass Details

Date: 02 December 2020
Orbit: 575 x 880 km, 66.7° (Epoch: 19 January)

Event Time Altitude Azimuth Distance (km) Brightness Sun altitude
Rises 17:20:14 0° 198° (SSW) 2,802 ? -10.0°
Reaches altitude 10° 17:22:26 10° 193° (SSW) 1,928 ? -10.3°
Maximum altitude 17:26:36 51° 118° (ESE) 789 ? -11.0°
Enters shadow 17:30:29 14° 45° (NE) 1,838 ? -11.6°
